Location: Nebula Knoll Observatory
(43.6666°N, 71.0000°W)
Time: 17:36:06
(UTC-04:00)

Cosmos 1782 - Visible Passes

Search period start: 22 August 2014 00:00
Search period end: 01 September 2014 00:00
Orbit: 550 x 565 km, 82.5° (Epoch: 21 August)

Date Brightness Start Highest point End Pass type
(mag) Time Alt. Az. Time Alt. Az. Time Alt. Az.
24 Aug 6.1 04:18:46 10° ESE 04:20:08 12° E 04:21:31 10° ENE visible
25 Aug 5.9 04:16:07 10° ESE 04:18:06 13° E 04:20:06 10° NE visible
26 Aug 5.8 04:13:39 10° ESE 04:16:05 16° E 04:18:31 10° NE visible
27 Aug 5.7 04:11:17 10° SE 04:14:03 18° E 04:16:50 10° NE visible
28 Aug 5.4 04:08:59 10° SE 04:12:02 20° E 04:15:05 10° NE visible
29 Aug 5.2 04:06:44 10° SE 04:10:00 24° E 04:13:18 10° NE visible
30 Aug 4.9 04:04:31 10° SSE 04:07:59 27° E 04:11:28 10° NNE visible
31 Aug 4.6 04:02:21 10° SSE 04:05:58 31° E 04:09:37 10° NNE visible
